DW8463 Weather Reports


time (UTC)temp
F
wind
direction
speed
knots
gust
knots
rain 1hr
in
rain 24hr
in
rain mn
in
humidity
%
barometer
mb
20260508161802 65 250 7.0 17.4 0.00 0.00 0.00 27 1006.7
20260508161303 65 268 6.1 13.0 0.00 0.00 0.00 27 1006.7
20260508160803 65 244 3.5 10.4 0.00 0.00 0.00 27 1006.7
20260508160303 65 249 6.1 13.9 0.00 0.00 0.00 27 1006.7
20260508155803 66 250 2.6 11.3 0.00 0.00 0.00 30 1006.7
20260508154803 63 241 3.5 10.4 0.00 0.00 0.00 30 1006.8
20260508154303 62 0 2.6 8.7 0.00 0.00 0.00 30 1006.9
20260508153803 62 261 6.1 12.2 0.00 0.00 0.00 30 1006.8
20260508153303 63 211 4.3 13.9 0.00 0.00 0.00 30 1006.9
20260508152803 63 224 5.2 13.0 0.00 0.00 0.00 30 1007.0
20260508152305 62 261 5.2 11.3 0.00 0.00 0.00 30 1007.1
20260508151803 62 249 6.1 13.0 0.00 0.00 0.00 30 1007.2
20260508150803 62 0 3.5 10.4 0.00 0.00 0.00 30 1007.3
20260508150303 61 0 4.3 12.2 0.00 0.00 0.00 30 1007.3
20260508145802 60 0 4.3 11.3 0.00 0.00 0.00 33 1007.4
20260508145306 59 0 5.2 10.4 0.00 0.00 0.00 33 1007.5
20260508144803 59 0 4.3 11.3 0.00 0.00 0.00 33 1007.6
20260508144303 59 0 4.3 11.3 0.00 0.00 0.00 33 1007.6
20260508143303 60 239 2.6 8.7 0.00 0.00 0.00 33 1007.6
20260508142306 60 338 5.2 13.0 0.00 0.00 0.00 33 1007.7
20260508141803 59 0 2.6 8.7 0.00 0.00 0.00 33 1007.8
20260508141303 59 0 3.5 12.2 0.00 0.00 0.00 33 1007.8
20260508140803 57 0 5.2 11.3 0.00 0.00 0.00 33 1007.9
20260508140302 57 0 2.6 11.3 0.00 0.00 0.00 33 1007.9
20260508135803 57 0 3.5 8.7 0.00 0.00 0.00 37 1008.0
20260508135305 56 0 7.0 12.2 0.00 0.00 0.00 37 1008.1
20260508134303 55 0 5.2 12.2 0.00 0.00 0.00 37 1008.2
20260508133802 54 0 5.2 11.3 0.00 0.00 0.00 37 1008.2
20260508133303 54 0 3.5 11.3 0.00 0.00 0.00 37 1008.2
20260508132802 54 0 3.5 7.0 0.00 0.00 0.00 37 1008.2
20260508132306 54 0 4.3 7.8 0.00 0.00 0.00 37 1008.3
20260508131303 53 0 5.2 10.4 0.00 0.00 0.00 37 1008.3
20260508130803 53 0 3.5 10.4 0.00 0.00 0.00 37 1008.3
20260508130302 52 0 3.5 13.9 0.00 0.00 0.00 37 1008.3
20260508125803 51 0 2.6 7.8 0.00 0.00 0.00 45 1008.4
20260508125306 50 0 3.5 8.7 0.00 0.00 0.00 45 1008.4
20260508124803 50 0 1.7 7.0 0.00 0.00 0.00 45 1008.4
20260508124302 49 0 2.6 10.4 0.00 0.00 0.00 45 1008.4
20260508123802 49 0 2.6 7.8 0.00 0.00 0.00 45 1008.4
20260508123303 48 0 1.7 4.3 0.00 0.00 0.00 45 1008.5
20260508122803 47 0 1.7 2.6 0.00 0.00 0.00 45 1008.5
20260508122306 46 0 0.9 2.6 0.00 0.00 0.00 45 1008.5
20260508121803 45 0 0.9 2.6 0.00 0.00 0.00 45 1008.5
20260508121302 43 0 1.7 2.6 0.00 0.00 0.00 45 1008.5
20260508120802 43 0 0.9 2.6 0.00 0.00 0.00 45 1008.5
20260508115802 42 0 0.9 2.6 0.00 0.00 0.00 48 1008.4
20260508115306 41 0 0.9 2.6 0.00 0.00 0.00 48 1008.5
20260508113803 40 0 0.9 1.7 0.00 0.00 0.00 48 1008.4
20260508113303 39 0 0.9 1.7 0.00 0.00 0.00 48 1008.4
20260508112803 38 0 0.9 2.6 0.00 0.00 0.00 48 1008.4
20260508112306 38 0 0.0 1.7 0.00 0.00 0.00 48 1008.4
20260508111802 38 0 0.9 2.6 0.00 0.00 0.00 48 1008.4
20260508111303 38 0 0.0 0.9 0.00 0.00 0.00 48 1008.4
20260508110802 37 346 0.0 1.7 0.00 0.00 0.00 48 1008.4
20260508110303 36 352 0.9 1.7 0.00 0.00 0.00 48 1008.4
20260508105802 36 0 0.9 1.7 0.00 0.00 0.00 46 1008.4
20260508105306 36 358 0.0 0.9 0.00 0.00 0.00 46 1008.4
20260508104802 37 0 0.0 0.9 0.00 0.00 0.00 46 1008.4
20260508104303 37 356 0.0 0.9 0.00 0.00 0.00 46 1008.4
20260508103803 38 351 0.0 0.0 0.00 0.00 0.00 46 1008.4
20260508103303 38 346 0.0 0.0 0.00 0.00 0.00 46 1008.4
20260508102803 39 344 0.9 2.6 0.00 0.00 0.00 46 1008.4
20260508102306 39 0 0.0 2.6 0.00 0.00 0.00 46 1008.5
20260508101302 38 0 0.0 1.7 0.00 0.00 0.00 46 1008.6
20260508100803 38 0 0.0 0.9 0.00 0.00 0.00 46 1008.6
20260508100303 38 0 0.9 1.7 0.00 0.00 0.00 49 1008.7
20260508095803 39 0 0.0 0.9 0.00 0.00 0.00 62 1008.7
20260508095306 38 0 0.9 2.6 0.00 0.00 0.00 62 1008.7
20260508094803 38 0 0.9 2.6 0.00 0.00 0.00 62 1008.7
20260508094303 39 0 0.0 1.7 0.00 0.00 0.00 62 1008.7
20260508093302 37 0 0.0 1.7 0.00 0.00 0.00 62 1008.7
20260508092803 37 0 0.0 1.7 0.00 0.00 0.00 62 1008.7
20260508092312 37 0 0.0 0.0 0.00 0.00 0.00 62 1008.8
20260508091802 37 0 0.0 1.7 0.00 0.00 0.00 62 1008.7
20260508090803 37 0 0.0 1.7 0.00 0.00 0.00 62 1008.8
20260508090302 37 337 0.0 1.7 0.00 0.00 0.00 62 1008.7
20260508085803 36 337 0.9 1.7 0.00 0.00 0.00 57 1008.7
20260508085306 36 337 0.0 2.6 0.00 0.00 0.00 57 1008.9
20260508084302 36 337 0.0 1.7 0.00 0.00 0.00 57 1008.8
20260508083803 36 337 0.9 1.7 0.00 0.00 0.00 57 1008.9
20260508083302 36 337 0.0 1.7 0.00 0.00 0.00 57 1008.9
20260508082803 36 337 0.9 1.7 0.00 0.00 0.00 57 1009.0
20260508082306 36 337 0.9 1.7 0.00 0.00 0.00 57 1009.0
20260508081803 36 337 0.0 1.7 0.00 0.00 0.00 57 1009.0
20260508081303 35 337 0.9 1.7 0.00 0.00 0.00 57 1009.0
20260508080803 35 337 0.0 0.0 0.00 0.00 0.00 57 1009.1
20260508080302 35 337 0.0 0.0 0.00 0.00 0.00 55 1009.2
20260508075803 35 337 0.0 0.0 0.00 0.00 0.00 46 1009.2
20260508075308 35 337 0.0 0.0 0.00 0.00 0.00 46 1009.2
20260508074803 35 337 0.0 0.0 0.00 0.00 0.00 46 1009.2
20260508074303 35 337 0.0 0.0 0.00 0.00 0.00 46 1009.3
20260508073802 35 337 0.0 0.0 0.00 0.00 0.00 46 1009.3
20260508073302 35 337 0.0 0.0 0.00 0.00 0.00 46 1009.3
20260508072802 35 337 0.0 0.0 0.00 0.00 0.00 46 1009.3
20260508072307 35 337 0.0 0.0 0.00 0.00 0.00 46 1009.4
20260508071803 34 338 0.0 0.0 0.00 0.00 0.00 46 1009.4
20260508071303 34 338 0.0 0.0 0.00 0.00 0.00 46 1009.4
20260508070802 34 338 0.0 0.0 0.00 0.00 0.00 46 1009.5
20260508070303 34 338 0.0 0.0 0.00 0.00 0.00 46 1009.4
20260508065306 33 0 0.0 0.0 0.00 0.00 0.00 54 1009.5
20260508064803 33 0 0.0 0.9 0.00 0.00 0.00 54 1009.6
20260508064303 33 0 0.0 0.9 0.00 0.00 0.00 54 1009.6
20260508063303 33 0 0.0 0.0 0.00 0.00 0.00 54 1009.6
20260508062803 33 0 0.0 0.0 0.00 0.00 0.00 54 1009.7
20260508062306 33 0 0.0 0.0 0.00 0.00 0.00 54 1009.7
20260508061803 33 0 0.0 0.0 0.00 0.00 0.00 54 1009.7
20260508060803 33 0 0.9 1.7 0.00 0.00 0.00 54 1009.9
20260508060303 33 0 0.0 0.0 0.00 0.00 0.00 54 1009.9
20260508055802 33 0 0.0 0.0 0.00 0.00 0.00 52 1009.9
20260508055306 33 0 0.0 0.0 0.00 0.00 0.00 52 1009.9
20260508054803 33 0 0.0 0.0 0.00 0.00 0.00 52 1009.9
20260508054303 33 0 0.0 0.0 0.00 0.00 0.00 52 1010.0
20260508053803 33 0 0.0 0.0 0.00 0.00 0.00 52 1010.0
20260508052802 33 0 0.0 0.0 0.00 0.00 0.00 52 1010.0
20260508052306 34 0 0.0 0.0 0.00 0.00 0.00 52 1010.1
20260508051803 34 0 0.0 0.0 0.00 0.00 0.00 52 1010.1
20260508051303 34 0 0.0 0.0 0.00 0.00 0.00 52 1010.1
20260508050811 34 0 0.0 0.0 0.00 0.00 0.00 52 1010.0
20260508050303 34 0 0.0 0.0 0.00 0.00 0.00 49 1010.1
20260508045803 34 0 0.0 0.0 0.00 0.00 0.00 35 1010.1
20260508044803 34 0 0.0 0.0 0.00 0.00 0.00 35 1010.2
20260508044303 35 0 0.0 0.0 0.00 0.00 0.00 35 1010.3
20260508043803 35 0 0.0 0.0 0.00 0.00 0.00 35 1010.3
20260508043302 35 0 0.0 0.0 0.00 0.00 0.00 35 1010.3
20260508042803 35 0 0.0 0.0 0.00 0.00 0.00 35 1010.3
20260508042306 35 0 0.0 0.0 0.00 0.00 0.00 35 1010.3
20260508041803 35 0 0.0 0.0 0.00 0.00 0.00 35 1010.4
20260508041303 35 0 0.0 0.0 0.00 0.00 0.00 35 1010.4
20260508040803 36 0 0.0 0.0 0.00 0.00 0.00 35 1010.4
20260508040303 36 0 0.0 0.0 0.00 0.00 0.00 35 1010.4
20260508035803 36 0 0.0 0.0 0.00 0.00 0.00 32 1010.4
20260508035306 37 0 0.0 0.0 0.00 0.00 0.00 32 1010.4
20260508034803 37 0 0.0 0.0 0.00 0.00 0.00 32 1010.5
20260508033803 37 0 0.0 0.0 0.00 0.00 0.00 32 1010.5
20260508032802 38 0 0.0 0.0 0.00 0.00 0.00 32 1010.4
20260508032306 38 0 0.0 0.0 0.00 0.00 0.00 32 1010.4
20260508031302 39 0 0.0 0.0 0.00 0.00 0.00 32 1010.4
20260508030803 39 0 0.0 0.0 0.00 0.00 0.00 32 1010.4
20260508030303 39 0 0.0 0.0 0.00 0.00 0.00 32 1010.4
20260508025803 39 0 0.0 0.0 0.00 0.00 0.00 27 1010.4
20260508024802 40 0 0.0 0.0 0.00 0.00 0.00 27 1010.3
20260508023802 40 0 0.0 0.0 0.00 0.00 0.00 27 1010.3
20260508023303 41 0 0.0 0.0 0.00 0.00 0.00 27 1010.3
20260508022803 41 0 0.0 0.0 0.00 0.00 0.00 27 1010.3
20260508022306 42 0 0.0 0.0 0.00 0.00 0.00 27 1010.2
20260508021303 43 0 0.0 0.0 0.00 0.00 0.00 27 1010.0
20260508020803 44 0 0.0 0.0 0.00 0.00 0.00 27 1009.9
20260508020303 44 0 0.0 0.0 0.00 0.00 0.00 27 1009.8
20260508015305 45 0 0.0 0.0 0.00 0.00 0.00 28 1009.8
20260508014802 45 0 0.0 0.0 0.00 0.00 0.00 28 1009.7
20260508014302 46 0 0.0 0.0 0.00 0.00 0.00 28 1009.7
20260508013803 47 0 0.0 0.0 0.00 0.00 0.00 28 1009.8
20260508013303 48 0 0.0 0.0 0.00 0.00 0.00 28 1009.8
20260508012803 49 0 0.0 0.0 0.00 0.00 0.00 28 1009.7
20260508012307 49 0 0.0 0.0 0.00 0.00 0.00 28 1009.7
20260508011803 50 0 0.0 0.0 0.00 0.00 0.00 28 1009.6
20260508011303 50 0 0.0 0.0 0.00 0.00 0.00 28 1009.6
20260508010803 51 0 0.0 0.0 0.00 0.00 0.00 28 1009.5
20260508010303 51 0 0.0 0.0 0.00 0.00 0.00 28 1009.5
20260508005305 52 0 0.0 0.9 0.00 0.00 0.00 25 1009.5
20260508004803 53 0 0.9 1.7 0.00 0.00 0.00 25 1009.4
20260508004302 54 0 0.0 1.7 0.00 0.00 0.00 25 1009.5
20260508003802 54 0 0.9 1.7 0.00 0.00 0.00 25 1009.4
20260508003303 54 0 0.0 0.9 0.00 0.00 0.00 25 1009.5
20260508002803 55 0 1.7 2.6 0.00 0.00 0.00 25 1009.5
20260508002306 55 0 0.9 2.6 0.00 0.00 0.00 25 1009.5
20260508001803 55 0 1.7 2.6 0.00 0.00 0.00 25 1009.5
20260508001303 56 0 1.7 2.6 0.00 0.00 0.00 25 1009.6
20260508000803 56 0 2.6 5.2 0.00 0.00 0.00 25 1009.6
20260508000305 56 0 3.5 7.8 0.00 0.00 0.00 25 1009.7
20260507235803 56 0 1.7 7.0 0.00 0.00 0.00 23 1009.7
20260507235306 56 0 2.6 8.7 0.00 0.00 0.00 23 1009.8
20260507234803 56 0 6.1 10.4 0.00 0.00 0.00 23 1009.8
20260507234302 56 0 2.6 5.2 0.00 0.00 0.00 23 1009.8
20260507233803 56 0 2.6 4.3 0.00 0.00 0.00 23 1009.9
20260507233303 56 359 1.7 5.2 0.00 0.00 0.00 23 1009.9
20260507232803 56 0 3.5 7.0 0.00 0.00 0.00 23 1009.9
20260507232306 56 354 4.3 7.8 0.00 0.00 0.00 23 1009.9
20260507231803 56 334 3.5 7.0 0.00 0.00 0.00 23 1010.0
20260507231303 56 340 4.3 8.7 0.00 0.00 0.00 23 1010.0
20260507230803 57 332 5.2 10.4 0.00 0.00 0.00 23 1009.9
20260507230303 57 42 2.6 10.4 0.00 0.00 0.00 23 1009.9
20260507225803 57 325 4.3 7.8 0.00 0.00 0.00 24 1009.9
20260507225306 57 310 4.3 7.0 0.00 0.00 0.00 24 1010.0
20260507224803 57 277 3.5 11.3 0.00 0.00 0.00 24 1010.1
20260507224303 57 301 1.7 6.1 0.00 0.00 0.00 24 1010.1
20260507223802 57 6 1.7 8.7 0.00 0.00 0.00 24 1010.1
20260507223303 57 0 4.3 7.8 0.00 0.00 0.00 24 1010.1
20260507222803 57 349 5.2 10.4 0.00 0.00 0.00 24 1010.1
20260507221802 57 357 4.3 10.4 0.00 0.00 0.00 24 1010.2
20260507220803 57 359 6.1 12.2 0.00 0.00 0.00 24 1010.1
20260507220303 57 323 6.1 10.4 0.00 0.00 0.00 24 1010.2
20260507215802 57 0 6.1 12.2 0.00 0.00 0.00 24 1010.3
20260507215306 57 0 3.5 10.4 0.00 0.00 0.00 24 1010.2
20260507214803 57 0 3.5 11.3 0.00 0.00 0.00 24 1010.2
20260507214302 57 0 5.2 10.4 0.00 0.00 0.00 24 1010.3
20260507213803 57 0 3.5 8.7 0.00 0.00 0.00 24 1010.2
20260507213303 57 0 2.6 10.4 0.00 0.00 0.00 24 1010.3
20260507212803 57 0 4.3 10.4 0.00 0.00 0.00 24 1010.3
20260507212306 57 0 6.1 10.4 0.00 0.00 0.00 24 1010.3
20260507211803 57 0 6.1 10.4 0.00 0.00 0.00 24 1010.4
20260507211303 58 0 7.8 12.2 0.00 0.00 0.00 24 1010.3
20260507210802 57 0 1.7 7.8 0.00 0.00 0.00 24 1010.3
20260507210303 57 0 7.0 12.2 0.00 0.00 0.00 24 1010.5
20260507205802 57 0 6.1 13.9 0.00 0.00 0.00 26 1010.4
20260507205306 57 0 7.0 13.0 0.00 0.00 0.00 26 1010.3
20260507204803 56 0 6.1 14.8 0.00 0.00 0.00 26 1010.4
20260507204303 57 0 7.8 15.6 0.00 0.00 0.00 26 1010.5
20260507203803 57 0 4.3 10.4 0.00 0.00 0.00 26 1010.5
20260507202803 57 0 6.1 10.4 0.00 0.00 0.00 26 1010.7
20260507201803 56 0 4.3 10.4 0.00 0.00 0.00 26 1010.9
20260507201302 56 0 7.0 10.4 0.00 0.00 0.00 26 1010.9
20260507200803 56 0 6.1 13.0 0.00 0.00 0.00 26 1010.9
20260507200303 56 0 8.7 13.0 0.00 0.00 0.00 26 1011.0
20260507195305 56 0 2.6 8.7 0.00 0.00 0.00 30 1010.9
20260507194803 56 0 7.0 13.0 0.00 0.00 0.00 30 1011.1
20260507194302 56 0 8.7 13.9 0.00 0.00 0.00 30 1011.0
20260507193804 56 0 7.0 10.4 0.00 0.00 0.00 30 1011.0
20260507193303 57 0 1.7 10.4 0.00 0.00 0.00 30 1010.9
20260507192306 56 0 6.1 13.0 0.00 0.00 0.00 30 1010.9
20260507191803 55 0 6.1 12.2 0.00 0.00 0.00 30 1011.0
20260507191303 55 0 2.6 8.7 0.00 0.00 0.00 30 1010.9
20260507190803 55 357 7.0 11.3 0.00 0.00 0.00 30 1011.0
20260507190303 55 0 6.1 14.8 0.00 0.00 0.00 30 1011.1
20260507185803 54 344 2.6 8.7 0.00 0.00 0.00 30 1011.1
20260507185305 55 51 7.8 11.3 0.00 0.00 0.00 30 1011.2
20260507184803 55 355 8.7 13.9 0.00 0.00 0.00 30 1011.2
20260507184303 55 30 11.3 14.8 0.00 0.00 0.00 30 1011.1
20260507183303 54 325 5.2 11.3 0.00 0.00 0.00 30 1011.3
20260507180303 54 338 5.2 10.4 0.00 0.00 0.00 30 1011.6
20260507175803 53 75 4.3 8.7 0.00 0.00 0.00 32 1011.7
20260507174803 54 287 5.2 13.0 0.00 0.00 0.00 32 1011.8
20260507174303 53 0 2.6 6.1 0.00 0.00 0.00 32 1011.8
20260507173803 53 308 6.1 10.4 0.00 0.00 0.00 32 1011.8
20260507173303 53 302 5.2 8.7 0.00 0.00 0.00 32 1011.9
20260507172307 53 0 2.6 12.2 0.00 0.00 0.00 32 1012.0
20260507171802 53 323 3.5 11.3 0.00 0.00 0.00 32 1012.0
20260507171303 52 316 2.6 5.2 0.00 0.00 0.00 32 1012.0
20260507170803 53 55 1.7 4.3 0.00 0.00 0.00 32 1012.1
20260507170303 52 351 4.3 7.0 0.00 0.00 0.00 32 1012.2
20260507165306 52 273 4.3 10.4 0.00 0.00 0.00 36 1012.2
20260507164803 52 313 4.3 12.2 0.00 0.00 0.00 36 1012.3
20260507164303 53 10 5.2 8.7 0.00 0.00 0.00 36 1012.3
20260507163803 53 333 5.2 10.4 0.00 0.00 0.00 36 1012.3
20260507163303 52 274 4.3 10.4 0.00 0.00 0.00 36 1012.3
20260507162803 51 332 3.5 10.4 0.00 0.00 0.00 36 1012.3
20260507162306 51 332 5.2 8.7 0.00 0.00 0.00 36 1012.5